Regional Weather Roundup
Issued by NWS

Home | Current Version | Previous Version | Graphics & Text | Print | Product List | Glossary On
Versions: 1 2 3 4 5 6 7 8 9 10 11 12 13 14 15 16 17 18 19 20 21 22 23 24 25 26 27 28 29 30 31 32 33 34 35 36 37 38 39 40 41 42 43 44 45 46 47 48 49 50
000
ASUS43 KLSX 252057
RWRMO

WEATHER SUMMARY FOR MISSOURI
NATIONAL WEATHER SERVICE SPRINGFIELD MO
400 PM CDT MON JUL 25 2016

NOTE: "FAIR" INDICATES FEW OR NO CLOUDS BELOW 12,000 FEET WITH NO
       SIGNIFICANT WEATHER AND/OR OBSTRUCTIONS TO VISIBILITY.
       CURRENT SKY AND/OR WEATHER CONDITIONS ARE NOT AVAILABLE FOR
       CHILLICOTHE AND FARMINGTON.

MOZ001>031-035>038-043-044-053-054-252200-
...NORTHERN AND WESTERN MISSOURI...

CITY           SKY/WX    TMP DP  RH WIND       PRES   REMARKS
KANSAS CTY INT CLOUDY    86  70  58 NE14      30.02F HX  90
LEE`S SUMMIT   CLOUDY    81  72  74 NE10      30.02S
ST JOSEPH      PTSUNNY   84  62  47 NE10G21   30.03F

$$
MOZ066>068-077>081-088>096-101>105-252200-
...SOUTHWEST MISSOURI...

CITY           SKY/WX    TMP DP  RH WIND       PRES   REMARKS
SPRINGFIELD    CLOUDY    82  72  71 E7        29.99F
JOPLIN         PTSUNNY   82  73  74 N6        29.98S
BRANSON        PTSUNNY   81  72  74 SE5       30.01S

$$
MOZ032>034-039>042-045>050-055>058-069>072-252200-
...CENTRAL MISSOURI...

CITY           SKY/WX    TMP DP  RH WIND       PRES   REMARKS
COLUMBIA       NOT AVBL
JEFFERSON CITY CLOUDY    82  73  74 VRB5      29.99F
ROLLA          PTSUNNY   83  73  72 N7        30.00F
SEDALIA        CLOUDY    84  75  74 NE10      30.02F HX  92
OSAGE BEACH    PTSUNNY   82  75  78 NE9       29.99F

$$
MOZ051-052-059>065-252200-
...EAST CENTRAL MISSOURI...

CITY           SKY/WX    TMP DP  RH WIND       PRES   REMARKS
ST LOUIS INTL  PTSUNNY   88  74  63 N8        29.97F HX  96

$$
MOZ072>076-082>087-097>100-106>115-252200-
...SOUTH CENTRAL AND SOUTHEAST MISSOURI...

CITY           SKY/WX    TMP DP  RH WIND       PRES   REMARKS
CAPE GIRARDEAU CLOUDY    81  74  79 CALM      29.95F
POPLAR BLUFF   CLOUDY    79  75  87 NE5       29.96F
WEST PLAINS    CLOUDY    88  72  58 N7        30.00F HX  94

$$


USA.gov is the U.S. government's official web portal to all federal, state and local government web resources and services.